Wayne, NE

8:17 PM CST on February 20, 2017 (GMT -0600)
Wayne Municipal

Weather History for KLCG - June, 2013

Change the Weather History Date:

Saturday, June 15, 2013

  Actual Average (KOFK) Record (KOFK)
Temperature  
Mean Temperature 72 °F -  
Max Temperature 81 °F 81 °F 104 °F (1936)
Min Temperature 62 °F 57 °F 37 °F (1917)
Cooling Degree Days 6    
Growing Degree Days 22 (Base 50)    
Moisture  
Dew Point 63 °F    
Average Humidity 79    
Maximum Humidity 100    
Minimum Humidity 50    
Precipitation  
Precipitation 0.19 in - - ()
Sea Level Pressure  
Sea Level Pressure 29.91 in    
Wind  
Wind Speed 4 mph (NE)    
Max Wind Speed 20 mph    
Max Gust Speed 28 mph    
Visibility 10 miles    
Events Rain , Thunderstorm    
Averages and records for this station are not official NWS values.
T = Trace of Precipitation, MM = Missing Value Source: NWS Daily Summary

Daily Weather History Graph

Daily Weather History Graph

Search for Another Location

Airport or City:

Trip Planner

Search our weather history database for the weather conditions in past years. The results will help you decide how hot, cold, wet, or windy it might be!

Date:

Astronomy

Jun. 15, 2013 Rise Set
Actual Time 5:50 AM CDT 9:06 PM CDT
Civil Twilight 5:16 AM CDT 9:40 PM CDT
Nautical Twilight 4:31 AM CDT 10:25 PM CDT
Astronomical Twilight 3:37 AM CDT 11:19 PM CDT
Moon 12:33 PM CDT (6/15) 12:36 AM CDT (6/15)
Length of Visible Light 16h 24m
Length of Day
15h 15m
Waxing Crescent, 40% of the Moon is Illuminated
Jun 15
Waxing Crescent
Jun 16
First Quarter
Jun 23
Full
Jun 29
Last Quarter
Jul 8
New

Hourly Weather History & Observations

Time (CDT) Temp. Heat Index Dew Point Humidity Pressure Visibility Wind Dir Wind Speed Gust Speed Precip Events Conditions
12:15 AM 64.9 °F - 64.0 °F 97% 29.82 in 10.0 mi Calm Calm - N/A   Clear
12:35 AM 64.4 °F - 63.5 °F 97% 29.83 in 10.0 mi Calm Calm - N/A   Clear
12:55 AM 63.9 °F - 63.5 °F 99% 29.86 in 10.0 mi Calm Calm - N/A   Clear
1:15 AM 64.9 °F - 63.1 °F 94% 29.88 in 10.0 mi ESE 9.2 mph - N/A   Clear
1:35 AM 70.3 °F - 60.8 °F 72% 29.90 in 10.0 mi ESE 9.2 mph - N/A   Clear
1:55 AM 69.1 °F - 60.8 °F 75% 29.91 in 10.0 mi SSE 5.8 mph - N/A   Clear
2:15 AM 66.7 °F - 61.3 °F 83% 29.91 in 10.0 mi South 3.5 mph - N/A   Clear
2:35 AM 66.6 °F - 61.3 °F 83% 29.90 in 10.0 mi Calm Calm - N/A   Clear
2:55 AM 64.2 °F - 61.7 °F 91% 29.90 in 10.0 mi Calm Calm - N/A   Clear
3:15 AM 64.0 °F - 62.2 °F 94% 29.89 in 10.0 mi Calm Calm - N/A   Clear
3:35 AM 64.4 °F - 62.4 °F 93% 29.87 in 10.0 mi Calm Calm - N/A   Clear
3:55 AM 64.4 °F - 62.6 °F 94% 29.86 in 10.0 mi ENE 3.5 mph - N/A   Clear
4:15 AM 63.5 °F - 62.6 °F 97% 29.84 in 10.0 mi NE 3.5 mph - N/A   Clear
4:35 AM 64.4 °F - 63.0 °F 95% 29.84 in 10.0 mi ESE 3.5 mph - N/A   Clear
4:55 AM 64.4 °F - 63.0 °F 95% 29.85 in 10.0 mi Calm Calm - N/A Thunderstorm Clear
5:15 AM 64.8 °F - 63.0 °F 94% 29.86 in 10.0 mi Calm Calm - N/A   Clear
5:35 AM 63.7 °F - 63.0 °F 97% 29.84 in 10.0 mi ENE 4.6 mph - N/A   Clear
5:55 AM 63.5 °F - 62.8 °F 97% 29.86 in 10.0 mi NE 3.5 mph - N/A   Clear
6:15 AM 62.4 °F - 62.4 °F 100% 29.88 in 10.0 mi Calm Calm - N/A   Clear
6:35 AM 62.2 °F - 62.2 °F 100% 29.86 in 10.0 mi Calm Calm - N/A Thunderstorm Clear
6:55 AM 62.6 °F - 62.6 °F 100% 29.87 in 7.0 mi Calm Calm - N/A   Clear
7:15 AM 64.2 °F - 64.2 °F 100% 29.89 in 10.0 mi Calm Calm - N/A   Clear
7:35 AM 65.7 °F - 64.4 °F 96% 29.89 in 10.0 mi Calm Calm - N/A   Clear
7:55 AM 66.2 °F - 64.4 °F 94% 29.88 in 10.0 mi Calm Calm - N/A   Clear
8:15 AM 65.7 °F - 64.4 °F 96% 29.89 in 10.0 mi Calm Calm - N/A   Scattered Clouds
8:35 AM 65.7 °F - 64.8 °F 97% 29.91 in 10.0 mi Calm Calm - N/A   Scattered Clouds
8:55 AM 66.6 °F - 64.4 °F 93% 29.97 in 10.0 mi NW 12.7 mph 20.7 mph N/A Thunderstorm Mostly Cloudy
9:15 AM 66.4 °F - 64.4 °F 93% 29.98 in 10.0 mi NNW 19.6 mph 27.6 mph N/A Rain , Thunderstorm Light Thunderstorms and Rain
9:35 AM 64.0 °F - 61.7 °F 92% 29.97 in 10.0 mi North 10.4 mph 16.1 mph N/A Rain Light Rain
9:55 AM 63.7 °F - 61.9 °F 94% 29.95 in 10.0 mi NNE 11.5 mph - N/A Thunderstorm Mostly Cloudy
10:15 AM 65.5 °F - 63.3 °F 93% 29.91 in 10.0 mi NNE 16.1 mph 20.7 mph N/A   Scattered Clouds
10:35 AM 66.6 °F - 63.1 °F 89% 29.90 in 10.0 mi NE 16.1 mph 21.9 mph N/A   Clear
10:55 AM 68.9 °F - 64.6 °F 86% 29.89 in 10.0 mi NNE 15.0 mph 20.7 mph N/A   Clear
11:15 AM 71.4 °F - 63.5 °F 76% 29.88 in 10.0 mi East 13.8 mph 18.4 mph N/A   Clear
11:35 AM 71.6 °F - 65.3 °F 80% 29.89 in 10.0 mi East 11.5 mph - N/A   Clear
11:55 AM 73.2 °F - 65.3 °F 76% 29.91 in 10.0 mi ENE 9.2 mph - N/A   Clear
12:15 PM 74.5 °F - 63.0 °F 67% 29.91 in 10.0 mi NE 15.0 mph - N/A   Clear
12:35 PM 74.5 °F - 62.8 °F 67% 29.92 in 10.0 mi NNE 11.5 mph - N/A   Clear
12:55 PM 75.0 °F - 62.2 °F 64% 29.93 in 10.0 mi NNE 8.1 mph - N/A   Clear
1:15 PM 73.9 °F - 62.1 °F 66% 29.93 in 10.0 mi NE 9.2 mph - N/A   Clear
1:35 PM 74.3 °F - 62.1 °F 65% 29.95 in 10.0 mi North 6.9 mph - N/A   Scattered Clouds
1:55 PM 74.8 °F - 62.1 °F 64% 29.97 in 10.0 mi Calm Calm - N/A   Mostly Cloudy
2:15 PM 74.5 °F - 61.7 °F 64% 29.96 in 10.0 mi Calm Calm - N/A   Scattered Clouds
2:35 PM 75.7 °F - 62.4 °F 63% 29.96 in 10.0 mi Calm Calm - N/A   Scattered Clouds
2:55 PM 76.5 °F - 62.4 °F 62% 29.96 in 10.0 mi SSE 4.6 mph - N/A   Mostly Cloudy
3:15 PM 76.1 °F - 65.8 °F 70% 29.95 in 10.0 mi SW 3.5 mph - N/A   Scattered Clouds
3:35 PM 76.8 °F - 64.4 °F 65% 29.94 in 10.0 mi ENE 3.5 mph - N/A   Scattered Clouds
3:55 PM 77.4 °F - 63.9 °F 63% 29.93 in 10.0 mi Calm Calm - N/A   Scattered Clouds
4:15 PM 77.7 °F - 64.2 °F 63% 29.92 in 10.0 mi Calm Calm - N/A   Clear
4:35 PM 78.6 °F - 64.8 °F 62% 29.91 in 10.0 mi ESE 4.6 mph - N/A   Clear
4:55 PM 79.7 °F - 61.0 °F 53% 29.90 in 10.0 mi Calm Calm - N/A   Clear
5:15 PM 80.6 °F 81.4 °F 60.6 °F 50% 29.90 in 10.0 mi NNE 3.5 mph - N/A   Clear
5:35 PM 80.6 °F 81.4 °F 60.6 °F 50% 29.90 in 10.0 mi Calm Calm - N/A   Clear
5:55 PM 81.5 °F 82.5 °F 62.4 °F 52% 29.90 in 10.0 mi North 8.1 mph - N/A   Mostly Cloudy
6:15 PM 80.6 °F 81.6 °F 61.7 °F 52% 29.90 in 10.0 mi North 8.1 mph - N/A   Scattered Clouds
6:35 PM 79.9 °F - 62.4 °F 55% 29.90 in 10.0 mi NNE 9.2 mph - N/A   Clear
6:55 PM 79.9 °F - 61.9 °F 54% 29.90 in 10.0 mi North 5.8 mph - N/A   Scattered Clouds
7:15 PM 79.2 °F - 62.2 °F 56% 29.90 in 10.0 mi North 10.4 mph - N/A   Clear
7:35 PM 78.8 °F - 61.5 °F 55% 29.90 in 10.0 mi North 8.1 mph - N/A   Clear
7:55 PM 77.9 °F - 61.2 °F 56% 29.91 in 10.0 mi North 9.2 mph - N/A   Clear
8:15 PM 77.0 °F - 61.9 °F 59% 29.91 in 10.0 mi North 8.1 mph - N/A   Clear
8:35 PM 75.9 °F - 62.4 °F 63% 29.92 in 10.0 mi NNE 5.8 mph - N/A   Clear
8:55 PM 73.6 °F - 63.1 °F 70% 29.92 in 10.0 mi NNE 3.5 mph - N/A   Clear
9:15 PM 71.8 °F - 63.1 °F 74% 29.93 in 10.0 mi Calm Calm - N/A   Clear
9:35 PM 71.1 °F - 62.6 °F 75% 29.93 in 10.0 mi Calm Calm - N/A   Clear
9:55 PM 70.2 °F - 63.5 °F 79% 29.95 in 10.0 mi Calm Calm - N/A   Clear
10:15 PM 68.4 °F - 63.9 °F 85% 29.95 in 10.0 mi Calm Calm - N/A   Clear
10:35 PM 67.1 °F - 63.5 °F 88% 29.96 in 10.0 mi Calm Calm - N/A   Clear
10:55 PM 66.7 °F - 63.7 °F 90% 29.97 in 10.0 mi Calm Calm - N/A   Clear
11:15 PM 66.2 °F - 63.5 °F 91% 29.97 in 10.0 mi Calm Calm - N/A   Clear
11:35 PM 65.1 °F - 63.5 °F 94% 29.97 in 10.0 mi Calm Calm - N/A   Clear
11:55 PM 64.6 °F - 62.8 °F 94% 29.97 in 10.0 mi Calm Calm - N/A   Clear